Hourly Data Report for May 01, 2012

All times are specified in Local Standard Time (LST). Add 1 hour to adjust for Daylight Saving Time where and when it is observed.

LONDON A
ONTARIO

43°01'59.000" N
81°09'04.000" W
278.00 m
6144473
71623
YXU

Download Data

Hourly Data (May 2012)
Hourly Data Report for May 1, 2012
Temp Definition
°C
Dew Point Temp Definition
°C
Rel Hum Definition
%
Wind Dir Definition
10's deg

Wind Spd Definition
km/h
Visibility Definition
km
Stn Press Definition
kPa
Hmdx Definition


Wind Chill Definition


Weather Definition


TIME
00:00 Legend Double Dagger 6.6 6.3 98 9 6 3.2 97.98     Fog
01:00 Legend Double Dagger 6.7 6.3 97 36 4 2.4 97.95     Fog
02:00 Legend Double Dagger 6.7 6.6 99   0 0.8 97.97     Drizzle,Fog
03:00 Legend Double Dagger 6.9 6.8 99 31 5 1.6 97.99     Drizzle,Fog
04:00 Legend Double Dagger 7.1 7.0 99 29 6 1.6 98.03     Fog
05:00 Legend Double Dagger 7.6 7.5 99 30 6 2.0 98.08     Fog
06:00 Legend Double Dagger 8.0 7.9 99 31 14 1.2 98.24     Fog
07:00 Legend Double Dagger 8.4 8.3 99 34 14 2.4 98.28     Fog
08:00 Legend Double Dagger 9.4 8.7 95 33 19 6.4 98.34     Fog
09:00 Legend Double Dagger 10.1 8.1 87 32 17 9.7 98.41     Fog
10:00 Legend Double Dagger 11.2 7.7 79 34 14 10.0 98.45     Cloudy
11:00 Legend Double Dagger 10.9 6.9 76 32 12 10.0 98.50     LegendNANA
12:00 Legend Double Dagger 11.5 7.1 74 33 6 10.0 98.49     LegendNANA
13:00
14:00 Legend Double Dagger 12.1 7.6 74 29 8 10.0 98.55     LegendNANA
15:00 Legend Double Dagger 12.2 8.1 76 29 12 10.0 98.55     LegendNANA
16:00 Legend Double Dagger 12.1 8.0 76 34 13 10.0 98.52     Cloudy
17:00 Legend Double Dagger 11.7 7.6 76 34 6 10.0 98.48     LegendNANA
18:00 Legend Double Dagger 11.2 7.5 78 4 9 10.0 98.39     LegendNANA
19:00 Legend Double Dagger 10.7 7.2 79 3 7 10.0 98.39     Cloudy
20:00 Legend Double Dagger 10.1 7.5 84 10 5 10.0 98.43     LegendNANA
21:00 Legend Double Dagger 9.4 7.4 87 5 8 10.0 98.46     LegendNANA
22:00 Legend Double Dagger 9.1 7.6 90 15 8 9.7 98.42     Fog
23:00 Legend Double Dagger 9.2 7.5 89 7 8 6.4 98.37     Fog

Notes on Data Quality.

Legend

  • E = Estimated
  • M = Missing
  • NA = Not Available
  • ‡ = Partner data that is not subject to review by the National Climate Archives
Date modified: